Weather History for KCWV - October, 2012

Change the Weather History Date:

Thursday, October 25, 2012

  Actual Average (KSAV) Record (KSAV)
Temperature  
Mean Temperature 72 °F 65 °F  
Max Temperature 86 °F 76 °F 87 °F (2001)
Min Temperature 59 °F 54 °F 33 °F (1965)
Degree Days  
Heating Degree Days 0 3  
Month to date heating degree days 37  
Since 1 July heating degree days 39  
Cooling Degree Days 8 3  
Month to date cooling degree days 132  
Year to date cooling degree days 2398  
Growing Degree Days 22 (Base 50)    
Moisture  
Dew Point 64 °F    
Average Humidity 80    
Maximum Humidity 100    
Minimum Humidity 48    
Precipitation  
Precipitation 0.00 in 0.09 in 0.86 in (1888)
Month to date precipitation 3.21  
Year to date precipitation 42.16  
Sea Level Pressure  
Sea Level Pressure 30.03 in    
Wind  
Wind Speed 4 mph (East)    
Max Wind Speed 17 mph    
Max Gust Speed 20 mph    
Visibility 10 miles    
Events      
T = Trace of Precipitation, MM = Missing Value Source: NWS Daily Summary

Daily Weather History Graph

Daily Weather History Graph

Search for Another Location

Airport or City:

Trip Planner

Search our weather history database for the weather conditions in past years. The results will help you decide how hot, cold, wet, or windy it might be!

Date:

Astronomy

Oct. 25, 2012 Rise Set
Actual Time 7:39 AM EDT 6:43 PM EDT
Civil Twilight 7:14 AM EDT 7:08 PM EDT
Nautical Twilight 6:45 AM EDT 7:37 PM EDT
Astronomical Twilight 6:16 AM EDT 8:05 PM EDT
Moon 4:18 PM EDT (10/25) 3:46 AM EDT (10/25)
Length of Visible Light 11h 54m
Length of Day
11h 04m
Waxing Gibbous, 84% of the Moon is Illuminated
Oct 25
Waxing Gibbous
Oct 29
Full
Nov 6
Last Quarter
Nov 13
New
Nov 20
First Quarter

Hourly Weather History & Observations

Time (EDT) Temp. Heat Index Dew Point Humidity Pressure Visibility Wind Dir Wind Speed Gust Speed Precip Events Conditions
12:15 AM 60.8 °F - 60.8 °F 100% 30.09 in 10.0 mi Calm Calm - N/A   Clear
12:55 AM 59.0 °F - 59.0 °F 100% 30.08 in 10.0 mi Calm Calm - N/A   Clear
1:15 AM 59.0 °F - 59.0 °F 100% 30.08 in 10.0 mi Calm Calm - N/A   Clear
1:35 AM 60.8 °F - 60.8 °F 100% 30.08 in 10.0 mi Calm Calm - N/A   Clear
1:55 AM 60.8 °F - 60.8 °F 100% 30.08 in 10.0 mi Calm Calm - N/A   Clear
2:15 AM 59.0 °F - 59.0 °F 100% 30.07 in 10.0 mi Calm Calm - N/A   Clear
2:35 AM 60.8 °F - 60.8 °F 100% 30.06 in 10.0 mi Calm Calm - N/A   Clear
2:55 AM 60.8 °F - 60.8 °F 100% 30.05 in 10.0 mi Calm Calm - N/A   Scattered Clouds
3:15 AM 60.8 °F - 60.8 °F 100% 30.05 in 10.0 mi Calm Calm - N/A   Scattered Clouds
3:35 AM 60.8 °F - 60.8 °F 100% 30.04 in 10.0 mi Calm Calm - N/A   Clear
3:55 AM 60.8 °F - 60.8 °F 100% 30.04 in 10.0 mi Calm Calm - N/A   Clear
4:15 AM 60.8 °F - 60.8 °F 100% 30.04 in 10.0 mi Calm Calm - N/A   Clear
4:35 AM 60.8 °F - 60.8 °F 100% 30.04 in 10.0 mi Calm Calm - N/A   Clear
4:55 AM 60.8 °F - 60.8 °F 100% 30.04 in 7.0 mi Calm Calm - N/A   Clear
5:15 AM 60.8 °F - 60.8 °F 100% 30.04 in 10.0 mi Calm Calm - N/A   Scattered Clouds
5:55 AM 62.6 °F - 62.6 °F 100% 30.05 in 10.0 mi Calm Calm - N/A   Clear
6:15 AM 60.8 °F - 60.8 °F 100% 30.05 in 10.0 mi Calm Calm - N/A   Clear
6:35 AM 60.8 °F - 60.8 °F 100% 30.05 in 10.0 mi Calm Calm - N/A   Clear
6:55 AM 60.8 °F - 60.8 °F 100% 30.05 in 7.0 mi Calm Calm - N/A   Clear
7:15 AM 60.8 °F - 60.8 °F 100% 30.05 in 7.0 mi Calm Calm - N/A   Clear
7:35 AM 60.8 °F - 60.8 °F 100% 30.05 in 10.0 mi Calm Calm - N/A   Clear
8:15 AM 62.6 °F - 62.6 °F 100% 30.05 in 7.0 mi Calm Calm - N/A   Clear
8:35 AM 64.4 °F - 64.4 °F 100% 30.06 in 10.0 mi Calm Calm - N/A   Clear
9:15 AM 69.8 °F - 68.0 °F 94% 30.07 in 10.0 mi ENE 4.6 mph - N/A   Clear
9:35 AM 71.6 °F - 68.0 °F 88% 30.07 in 10.0 mi East 3.5 mph - N/A   Clear
9:55 AM 73.4 °F - 68.0 °F 83% 30.07 in 10.0 mi ENE 5.8 mph - N/A   Clear
10:15 AM 77.0 °F - 68.0 °F 74% 30.07 in 10.0 mi ENE 5.8 mph - N/A   Clear
10:35 AM 78.8 °F - 68.0 °F 69% 30.07 in 10.0 mi East 8.1 mph - N/A   Clear
10:55 AM 78.8 °F - 68.0 °F 69% 30.07 in 10.0 mi ENE 10.4 mph - N/A   Clear
11:15 AM 80.6 °F 82.7 °F 66.2 °F 61% 30.07 in 10.0 mi East 9.2 mph - N/A   Clear
11:35 AM 80.6 °F 82.7 °F 66.2 °F 61% 30.06 in 10.0 mi ENE 11.5 mph - N/A   Mostly Cloudy
11:55 AM 80.6 °F 83.2 °F 68.0 °F 65% 30.05 in 10.0 mi East 11.5 mph 16.1 mph N/A   Scattered Clouds
12:15 PM 82.4 °F 84.6 °F 66.2 °F 58% 30.05 in 10.0 mi East 15.0 mph - N/A   Mostly Cloudy
12:35 PM 80.6 °F 82.7 °F 66.2 °F 61% 30.04 in 10.0 mi East 11.5 mph 18.4 mph N/A   Mostly Cloudy
1:15 PM 80.6 °F 82.7 °F 66.2 °F 61% 30.03 in 10.0 mi East 8.1 mph 16.1 mph N/A   Mostly Cloudy
1:35 PM 80.6 °F 82.7 °F 66.2 °F 61% 30.02 in 10.0 mi East 8.1 mph - N/A   Mostly Cloudy
1:55 PM 82.4 °F 85.4 °F 68.0 °F 62% 30.01 in 10.0 mi East 12.7 mph - N/A   Mostly Cloudy
2:15 PM 82.4 °F 85.4 °F 68.0 °F 62% 30.01 in 10.0 mi East 10.4 mph 16.1 mph N/A   Mostly Cloudy
2:35 PM 84.2 °F 87.3 °F 68.0 °F 58% 30.00 in 10.0 mi East 15.0 mph 19.6 mph N/A   Mostly Cloudy
2:55 PM 82.4 °F 84.6 °F 66.2 °F 58% 30.00 in 10.0 mi East 12.7 mph 18.4 mph N/A   Scattered Clouds
3:15 PM 82.4 °F 83.9 °F 64.4 °F 54% 30.00 in 10.0 mi East 10.4 mph 16.1 mph N/A   Scattered Clouds
3:35 PM 82.4 °F 83.4 °F 62.6 °F 51% 29.99 in 10.0 mi ESE 12.7 mph 18.4 mph N/A   Clear
3:55 PM 86.0 °F 87.3 °F 64.4 °F 48% 29.99 in 10.0 mi ENE 17.3 mph - N/A   Scattered Clouds
4:15 PM 82.4 °F 83.4 °F 62.6 °F 51% 29.99 in 10.0 mi East 9.2 mph - N/A   Scattered Clouds
4:35 PM 82.4 °F 83.9 °F 64.4 °F 54% 29.99 in 10.0 mi East 10.4 mph 17.3 mph N/A   Clear
4:55 PM 82.4 °F 83.9 °F 64.4 °F 54% 29.99 in 10.0 mi East 12.7 mph - N/A   Scattered Clouds
5:15 PM 82.4 °F 83.9 °F 64.4 °F 54% 30.00 in 10.0 mi East 12.7 mph - N/A   Scattered Clouds
5:35 PM 80.6 °F 82.3 °F 64.4 °F 58% 30.00 in 10.0 mi East 8.1 mph - N/A   Scattered Clouds
5:55 PM 80.6 °F 82.3 °F 64.4 °F 58% 30.00 in 10.0 mi East 12.7 mph 17.3 mph N/A   Scattered Clouds
6:15 PM 78.8 °F - 64.4 °F 61% 30.01 in 10.0 mi East 8.1 mph - N/A   Scattered Clouds
6:35 PM 78.8 °F - 64.4 °F 61% 30.01 in 10.0 mi East 6.9 mph - N/A   Clear
6:55 PM 77.0 °F - 64.4 °F 65% 30.02 in 10.0 mi East 5.8 mph - N/A   Clear
7:15 PM 75.2 °F - 66.2 °F 73% 30.02 in 10.0 mi East 3.5 mph - N/A   Clear
7:35 PM 73.4 °F - 66.2 °F 78% 30.03 in 10.0 mi East 4.6 mph - N/A   Clear
8:15 PM 73.4 °F - 68.0 °F 83% 30.03 in 10.0 mi East 9.2 mph - N/A   Clear
8:35 PM 73.4 °F - 68.0 °F 83% 30.03 in 10.0 mi East 6.9 mph - N/A   Clear
8:55 PM 73.4 °F - 68.0 °F 83% 30.02 in 10.0 mi ENE 4.6 mph - N/A   Clear
9:15 PM 71.6 °F - 68.0 °F 88% 30.02 in 10.0 mi ENE 5.8 mph - N/A   Clear
9:35 PM 71.6 °F - 68.0 °F 88% 30.02 in 10.0 mi East 4.6 mph - N/A   Clear
9:55 PM 71.6 °F - 68.0 °F 88% 30.02 in 10.0 mi East 6.9 mph - N/A   Clear
10:15 PM 71.6 °F - 68.0 °F 88% 30.02 in 10.0 mi East 9.2 mph - N/A   Clear
10:35 PM 71.6 °F - 66.2 °F 83% 30.02 in 10.0 mi ENE 4.6 mph - N/A   Clear
10:55 PM 71.6 °F - 66.2 °F 83% 30.01 in 10.0 mi ENE 5.8 mph - N/A   Clear
11:15 PM 71.6 °F - 66.2 °F 83% 30.01 in 10.0 mi ENE 5.8 mph - N/A   Clear
11:35 PM 71.6 °F - 66.2 °F 83% 30.01 in 10.0 mi ENE 6.9 mph - N/A   Clear
11:55 PM 69.8 °F - 66.2 °F 88% 30.00 in 10.0 mi ENE 6.9 mph - N/A   Clear